EW4479 Weather Reports


time (UTC)temp
C
wind
direction
speed
KPH
gust
KPH
rain 1hr
cm
rain 24hr
cm
rain mn
cm
humidity
%
barometer
mb
20260506034202 10 261 1.6 9.7 0.00 0.03 0.00 84 1008.5
20260506033704 10 280 3.2 9.7 0.00 0.03 0.00 85 1008.7
20260506033201 10 270 1.6 9.7 0.00 0.03 0.00 85 1008.7
20260506032702 10 217 0.0 6.4 0.00 0.03 0.00 86 1008.7
20260506031702 10 254 1.6 6.4 0.00 0.03 0.00 84 1008.8
20260506031201 10 243 0.0 6.4 0.00 0.03 0.00 84 1008.6
20260506025658 10 236 4.8 8.0 0.00 0.03 0.00 84 1009.0
20260506024656 10 228 1.6 8.0 0.00 0.03 0.00 84 1009.1
20260506024156 10 238 3.2 8.0 0.00 0.03 0.00 84 1009.2
20260506023655 10 248 3.2 6.4 0.00 0.03 0.00 85 1009.2
20260506023155 10 251 1.6 3.2 0.00 0.03 0.00 86 1009.2
20260506022649 10 236 0.0 4.8 0.00 0.03 0.00 86 1009.1
20260506021640 10 241 0.0 3.2 0.00 0.03 0.00 87 1008.8
20260506021140 10 241 0.0 0.0 0.00 0.03 0.00 87 1009.0
20260506020638 10 241 0.0 0.0 0.00 0.03 0.00 86 1009.1
20260506020136 10 241 0.0 0.0 0.00 0.03 0.00 86 1009.1
20260506015131 10 202 0.0 4.8 0.00 0.03 0.00 86 1009.1
20260506014122 10 249 1.6 3.2 0.00 0.03 0.00 86 1009.1
20260506013621 10 250 0.0 3.2 0.00 0.03 0.00 86 1009.2
20260506013119 10 244 0.0 3.2 0.00 0.03 0.00 86 1009.3
20260506012618 10 214 0.0 3.2 0.00 0.03 0.00 86 1009.3
20260506011615 10 205 0.0 3.2 0.00 0.03 0.00 86 1009.4
20260506011113 10 222 1.6 6.4 0.00 0.03 0.00 86 1009.5
20260506010610 10 211 0.0 6.4 0.00 0.03 0.00 86 1009.5
20260506010110 10 217 1.6 4.8 0.00 0.03 0.00 86 1009.5
20260506005607 10 210 1.6 8.0 0.00 0.03 0.00 86 1009.4
20260506005104 10 188 4.8 8.0 0.00 0.03 0.00 85 1009.5
20260506004103 10 213 1.6 6.4 0.00 0.03 0.00 84 1009.4
20260506003602 11 244 3.2 8.0 0.00 0.03 0.00 83 1009.5
20260506003102 11 236 3.2 8.0 0.00 0.03 0.00 83 1009.5
20260506002605 11 217 3.2 4.8 0.00 0.03 0.00 83 1009.5
20260506002102 11 229 1.6 4.8 0.00 0.03 0.00 83 1009.7
20260506001601 11 206 1.6 6.4 0.00 0.03 0.00 83 1009.6
20260506001103 11 242 1.6 8.0 0.00 0.03 0.00 83 1009.7
20260506000602 11 246 1.6 8.0 0.00 0.03 0.00 83 1009.7
20260506000114 11 236 1.6 6.4 0.00 0.03 0.00 83 1009.7
20260505235600 11 232 3.2 8.0 0.00 0.03 0.00 83 1009.8
20260505234600 11 230 4.8 8.0 0.00 0.03 0.00 83 1009.9
20260505233601 11 234 1.6 4.8 0.00 0.03 0.00 83 1010.0
20260505233101 11 233 1.6 4.8 0.00 0.03 0.00 83 1010.0
20260505232600 11 246 0.0 4.8 0.00 0.03 0.00 83 1010.1
20260505232101 11 240 0.0 4.8 0.00 0.03 0.00 83 1010.1
20260505231600 11 225 1.6 4.8 0.00 0.03 0.00 83 1010.1
20260505231102 11 220 1.6 4.8 0.00 0.03 0.00 84 1010.2
20260505230602 11 207 3.2 8.0 0.00 0.03 0.00 84 1010.3
20260505230115 11 196 3.2 8.0 0.00 0.03 0.00 83 1010.3
20260505225603 11 209 1.6 4.8 0.00 0.03 0.00 82 1010.4
20260505224602 11 214 1.6 6.4 0.00 0.03 0.00 82 1010.4
20260505224103 11 219 1.6 6.4 0.00 0.03 0.00 83 1010.3
20260505223102 11 225 3.2 8.0 0.00 0.03 0.00 83 1010.1
20260505222602 11 204 3.2 8.0 0.00 0.03 0.00 82 1010.2
20260505222101 11 252 3.2 8.0 0.00 0.03 0.00 82 1010.3
20260505221604 12 232 3.2 11.3 0.00 0.03 0.00 82 1010.3
20260505221116 12 261 4.8 14.5 0.00 0.05 0.00 82 1010.4
20260505215601 12 255 3.2 12.9 0.00 0.05 0.05 80 1010.2
20260505215106 12 231 4.8 12.9 0.00 0.05 0.05 80 1010.1
20260505214600 12 269 4.8 16.1 0.00 0.05 0.05 80 1010.0
20260505214101 13 228 6.4 16.1 0.00 0.05 0.05 81 1009.9
20260505213600 13 242 4.8 12.9 0.00 0.05 0.05 81 1009.7
20260505213102 13 240 3.2 12.9 0.00 0.05 0.05 81 1009.8
20260505212115 13 257 0.0 8.0 0.00 0.05 0.05 80 1009.7
20260505211601 13 223 1.6 8.0 0.00 0.05 0.05 79 1009.8
20260505211103 13 273 3.2 8.0 0.00 0.05 0.05 79 1009.9
20260505210604 13 308 3.2 11.3 0.00 0.05 0.05 80 1009.9
20260505210106 13 274 3.2 12.9 0.00 0.05 0.05 80 1009.8
20260505204608 13 250 3.2 19.3 0.00 0.05 0.05 82 1010.0
20260505204101 13 318 3.2 19.3 0.00 0.05 0.05 82 1009.8
20260505203603 13 291 3.2 9.7 0.00 0.05 0.05 82 1009.9
20260505203101 13 215 1.6 9.7 0.00 0.10 0.05 81 1010.0
20260505202108 13 234 4.8 12.9 0.00 0.15 0.05 80 1009.9
20260505201600 13 243 1.6 8.0 0.00 0.23 0.05 81 1009.9
20260505201105 13 223 1.6 8.0 0.00 0.28 0.05 81 1009.8
20260505200603 13 224 1.6 6.4 0.00 0.30 0.05 81 1009.7
20260505195601 13 254 0.0 3.2 0.00 0.33 0.05 83 1009.5
20260505195101 13 266 0.0 4.8 0.00 0.33 0.05 83 1009.3
20260505194601 13 266 0.0 4.8 0.00 0.38 0.05 82 1009.2
20260505194103 13 226 1.6 4.8 0.00 0.41 0.05 82 1009.2
20260505193601 13 246 1.6 4.8 0.00 0.43 0.05 82 1009.1
20260505193102 13 262 1.6 4.8 0.00 0.48 0.05 82 1009.1
20260505192600 13 291 0.0 4.8 0.00 0.48 0.05 82 1009.0
20260505192102 13 302 0.0 6.4 0.00 0.48 0.05 82 1009.1
20260505191601 13 288 3.2 6.4 0.00 0.48 0.05 81 1008.8
20260505191104 13 277 1.6 6.4 0.00 0.51 0.05 81 1008.7
20260505190602 13 278 1.6 8.0 0.00 0.51 0.05 80 1008.6
20260505190107 13 296 3.2 8.0 0.00 0.51 0.05 81 1008.5
20260505185103 13 306 1.6 6.4 0.00 0.51 0.05 83 1008.3
20260505184601 13 290 1.6 4.8 0.00 0.51 0.05 85 1008.3
20260505183602 13 287 3.2 4.8 0.00 0.51 0.05 86 1008.1
20260505182100 13 265 0.0 0.0 0.00 0.51 0.05 83 1007.7
20260505181601 13 265 0.0 0.0 0.00 0.51 0.05 82 1007.7
20260505181101 13 265 0.0 0.0 0.00 0.51 0.05 81 1007.7
20260505180600 14 265 0.0 1.6 0.00 0.51 0.05 80 1007.7
20260505175559 15 301 0.0 3.2 0.00 0.51 0.05 74 1007.8
20260505174558 15 240 1.6 3.2 0.00 0.51 0.05 72 1007.9
20260505174058 15 241 0.0 3.2 0.00 0.51 0.05 73 1008.0
20260505173558 15 259 0.0 6.4 0.00 0.51 0.05 72 1008.0
20260505173052 15 288 3.2 6.4 0.00 0.51 0.05 72 1008.2
20260505171546 16 295 1.6 9.7 0.00 0.51 0.05 70 1007.9
20260505170543 16 325 3.2 11.3 0.00 0.51 0.05 68 1007.9
20260505170038 16 276 3.2 14.5 0.00 0.51 0.05 68 1007.9
20260505164956 17 294 3.2 9.7 0.00 0.51 0.05 67 1007.9
20260505164458 16 331 3.2 12.9 0.00 0.51 0.05 67 1007.8
20260505163952 17 17 3.2 12.9 0.00 0.51 0.05 67 1007.8
20260505163451 17 296 3.2 9.7 0.00 0.51 0.05 66 1007.9
20260505162950 17 313 3.2 9.7 0.00 0.51 0.05 66 1007.8
20260505162445 17 355 1.6 11.3 0.00 0.51 0.05 66 1007.8
20260505161943 17 288 4.8 14.5 0.00 0.51 0.05 66 1007.9
20260505160942 17 310 9.7 17.7 0.00 0.51 0.05 63 1007.8
20260505160439 18 55 4.8 11.3 0.00 0.51 0.05 64 1007.8
20260505152930 17 342 4.8 11.3 0.00 0.51 0.05 68 1007.8
20260505151428 17 355 3.2 9.7 0.00 0.51 0.05 68 1007.7
20260505150927 17 281 4.8 9.7 0.00 0.51 0.05 69 1007.7
20260505150428 17 320 4.8 8.0 0.00 0.51 0.05 69 1007.6
20260505140405 18 294 6.4 16.1 0.00 0.51 0.05 64 1007.8
20260505124901 20 257 1.6 8.0 0.00 0.51 0.05 47 1007.8
20260505124403 20 258 4.8 8.0 0.00 0.51 0.05 49 1007.8
20260505123900 20 265 3.2 6.4 0.00 0.51 0.05 47 1007.8
20260505123400 20 296 3.2 6.4 0.00 0.51 0.05 51 1007.8
20260505122405 20 274 3.2 11.3 0.00 0.51 0.05 49 1007.8
20260505121402 21 264 3.2 9.7 0.00 0.51 0.05 50 1007.8
20260505120901 21 355 0.0 6.4 0.00 0.51 0.05 53 1007.8
20260505120415 21 316 3.2 11.3 0.00 0.51 0.05 49 1007.7
20260505115902 21 242 4.8 11.3 0.00 0.51 0.05 50 1007.7
20260505115402 21 257 3.2 6.4 0.00 0.51 0.05 52 1007.8
20260505114905 21 288 1.6 6.4 0.00 0.51 0.05 53 1007.8
20260505114401 21 294 0.0 6.4 0.00 0.51 0.05 55 1007.8
20260505112902 20 338 0.0 1.6 0.00 0.51 0.05 55 1007.8
20260505112401 20 355 0.0 1.6 0.00 0.51 0.05 53 1008.0
20260505111858 20 355 0.0 4.8 0.00 0.51 0.05 57 1008.0
20260505111358 20 355 1.6 4.8 0.00 0.51 0.05 55 1008.1
20260505110857 21 346 3.2 4.8 0.00 0.51 0.05 56 1008.1
20260505110356 21 259 0.0 6.4 0.00 0.51 0.05 56 1008.0
20260505101845 20 334 1.6 4.8 0.00 0.51 0.05 58 1008.4
20260505101335 20 165 1.6 4.8 0.00 0.51 0.05 63 1008.4
20260505100831 21 118 1.6 4.8 0.00 0.51 0.05 72 1008.4
20260505100330 19 130 0.0 4.8 0.00 0.51 0.05 68 1008.6
20260505095829 19 127 1.6 4.8 0.00 0.51 0.05 70 1008.7
20260505095329 19 123 3.2 4.8 0.00 0.51 0.05 73 1008.7
20260505094829 18 82 1.6 4.8 0.00 0.51 0.05 71 1008.6
20260505094328 19 90 0.0 3.2 0.00 0.51 0.05 70 1008.7
20260505093827 18 89 1.6 3.2 0.00 0.51 0.05 68 1008.8
20260505093320 18 100 0.0 6.4 0.00 0.51 0.05 70 1008.8
20260505092819 19 217 4.8 6.4 0.00 0.51 0.05 68 1008.8
20260505092316 19 137 1.6 6.4 0.00 0.51 0.05 77 1009.0
20260505091816 19 213 3.2 6.4 0.00 0.51 0.05 75 1009.0
20260505091316 18 238 0.0 4.8 0.00 0.51 0.05 78 1009.2
20260505090814 18 208 3.2 4.8 0.00 0.51 0.05 75 1009.3
20260505085810 17 124 0.0 4.8 0.00 0.51 0.05 74 1009.4
20260505085309 18 117 1.6 6.4 0.00 0.51 0.05 79 1009.3
20260505084309 17 114 1.6 4.8 0.00 0.51 0.05 80 1009.5
20260505083808 16 202 1.6 4.8 0.00 0.51 0.05 80 1009.4
20260505083307 16 155 0.0 6.4 0.00 0.51 0.05 82 1009.4
20260505082808 16 221 4.8 6.4 0.00 0.51 0.05 80 1009.4
20260505082307 16 165 1.6 4.8 0.00 0.51 0.05 80 1009.3
20260505081803 16 157 0.0 4.8 0.00 0.51 0.05 81 1009.5
20260505081304 15 244 0.0 3.2 0.00 0.51 0.05 84 1009.7
20260505080802 15 244 0.0 3.2 0.00 0.51 0.05 85 1009.7
20260505080304 15 236 0.0 4.8 0.00 0.51 0.05 86 1009.8
20260505075802 15 236 3.2 4.8 0.00 0.51 0.05 84 1009.9
20260505074801 14 260 1.6 4.8 0.00 0.51 0.05 86 1010.1
20260505074302 14 275 1.6 4.8 0.00 0.51 0.05 86 1010.1
20260505073800 14 275 0.0 4.8 0.00 0.51 0.05 86 1010.1
20260505073303 14 258 0.0 4.8 0.00 0.51 0.05 87 1010.2
20260505072805 14 259 1.6 6.4 0.00 0.51 0.05 88 1010.3
20260505071803 13 242 1.6 6.4 0.00 0.51 0.05 89 1010.3
20260505071256 13 256 0.0 9.7 0.00 0.51 0.05 89 1010.3
20260505070754 13 234 3.2 9.7 0.00 0.51 0.05 90 1010.4
20260505070253 13 238 3.2 9.7 0.00 0.51 0.05 90 1010.3
20260505065748 13 278 3.2 6.4 0.00 0.51 0.05 90 1010.4
20260505065246 12 229 1.6 6.4 0.00 0.51 0.05 91 1010.4
20260505064748 12 250 3.2 9.7 0.00 0.51 0.05 92 1010.4
20260505064246 12 267 3.2 9.7 0.00 0.51 0.05 92 1010.4
20260505063744 12 208 0.0 0.0 0.00 0.51 0.05 92 1010.3
20260505063243 12 246 0.0 0.0 0.00 0.51 0.05 92 1010.2
20260505062740 12 216 0.0 0.0 0.00 0.51 0.05 92 1010.2
20260505062238 12 284 0.0 0.0 0.00 0.51 0.05 93 1010.1
20260505061737 11 278 0.0 0.0 0.00 0.51 0.05 94 1010.0
20260505061236 11 296 0.0 0.0 0.00 0.51 0.05 94 1010.1
20260505060735 11 307 0.0 0.0 0.00 0.51 0.05 95 1010.1
20260505060232 11 307 0.0 0.0 0.00 0.51 0.05 95 1010.1
20260505055733 11 296 0.0 0.0 0.00 0.51 0.05 96 1010.2
20260505055233 11 227 0.0 0.0 0.00 0.51 0.05 96 1010.2
20260505054732 10 227 0.0 0.0 0.00 0.51 0.05 96 1010.2
20260505054231 10 227 0.0 0.0 0.03 0.51 0.05 97 1010.3
20260505053730 10 227 0.0 0.0 0.03 0.51 0.05 97 1010.3
20260505053233 10 227 0.0 0.0 0.03 0.51 0.05 97 1010.3
20260505052731 10 227 0.0 0.0 0.03 0.51 0.05 97 1010.3
20260505052230 10 268 0.0 0.0 0.03 0.51 0.05 97 1010.3
20260505051728 9 268 0.0 0.0 0.03 0.51 0.05 98 1010.3
20260505051228 9 268 0.0 0.0 0.03 0.51 0.05 98 1010.3
20260505050728 9 268 0.0 0.0 0.03 0.51 0.05 98 1010.3
20260505050226 8 268 0.0 0.0 0.03 0.51 0.05 98 1010.3
20260505041710 8 268 0.0 0.0 0.00 0.48 0.03 97 1010.4
20260505040710 8 268 0.0 0.0 0.00 0.48 0.03 97 1010.4
20260505040203 8 268 0.0 0.0 0.00 0.48 0.03 97 1010.6
20260505035703 8 268 0.0 0.0 0.00 0.48 0.03 97 1010.5
20260505035202 8 268 0.0 0.0 0.00 0.48 0.03 97 1010.6